Jackson, MI

3:41 PM EDT on May 23, 2018 (GMT -0400)
Jackson County-Reynolds

Weather History for KJXN - October, 2013

Change the Weather History Date:

Saturday, October 12, 2013

  Actual Average Record
Temperature  
Mean Temperature 62 °F 52 °F  
Max Temperature 77 °F 62 °F 80 °F (2008)
Min Temperature 47 °F 41 °F 26 °F (1957)
Degree Days  
Heating Degree Days 3 14  
Month to date heating degree days 67 145  
Since 1 July heating degree days 275 333  
Cooling Degree Days 0 0  
Month to date cooling degree days 12 3  
Year to date cooling degree days 616 589  
Growing Degree Days 12 (Base 50)    
Moisture  
Dew Point 51 °F    
Average Humidity 68    
Maximum Humidity 100    
Minimum Humidity 36    
Precipitation  
Precipitation 0.00 in 0.08 in 0.76 in (2016)
Month to date precipitation 0.44 1.13  
Year to date precipitation 27.54 25.53  
Sea Level Pressure  
Sea Level Pressure 30.08 in    
Wind  
Wind Speed 5 mph (SSE)    
Max Wind Speed 14 mph    
Max Gust Speed 18 mph    
Visibility 5 miles    
Events Fog    
T = Trace of Precipitation, MM = Missing Value Source: NWS Daily Summary

Daily Weather History Graph

Daily Weather History Graph

Search for Another Location

Airport or City:

Astronomy

Oct. 12, 2013 Rise Set
Actual Time 7:47 AM EDT 7:00 PM EDT
Civil Twilight 7:19 AM EDT 7:28 PM EDT
Nautical Twilight 6:46 AM EDT 8:00 PM EDT
Astronomical Twilight 6:14 AM EDT 8:33 PM EDT
Moon 3:15 PM EDT (10/12) 12:42 AM EDT (10/12)
Length of Visible Light 12h 09m
Length of Day
11h 12m
First Quarter, 58% of the Moon is Illuminated
Oct 12
First Quarter
Oct 18
Full
Oct 26
Last Quarter
Nov 3
New
Nov 10
First Quarter

Hourly Weather History & Observations

Time (EDT) Temp. Dew Point Humidity Pressure Visibility Wind Dir Wind Speed Gust Speed Precip Events Conditions
12:56 AM 53.1 °F 51.1 °F 93% 30.09 in 9.0 mi Calm Calm - N/A   Clear
1:56 AM 50.0 °F 48.9 °F 96% 30.08 in 4.0 mi Calm Calm - N/A   Clear
2:15 AM 50.0 °F 48.2 °F 94% 30.08 in 1.8 mi Calm Calm - N/A   Clear
2:25 AM 50.0 °F 48.2 °F 94% 30.08 in 0.8 mi Calm Calm - N/A   Clear
2:31 AM 48.2 °F 48.2 °F 100% 30.08 in 2.0 mi Calm Calm - N/A   Clear
2:38 AM 50.0 °F 48.2 °F 94% 30.08 in 1.2 mi ESE 3.5 mph - N/A   Partly Cloudy
2:45 AM 48.2 °F 48.2 °F 100% 30.08 in 0.8 mi ESE 3.5 mph - N/A   Mist
2:56 AM 48.9 °F 48.9 °F 100% 30.08 in 0.2 mi Calm Calm - N/A Fog Fog
3:56 AM 50.0 °F 50.0 °F 100% 30.08 in 0.2 mi Calm Calm - N/A Fog Fog
4:32 AM 50.0 °F 48.2 °F 94% 30.09 in 0.5 mi Calm Calm - N/A Fog Fog
4:56 AM 51.1 °F 50.0 °F 96% 30.08 in 0.5 mi Calm Calm - N/A Fog Fog
5:56 AM 50.0 °F 50.0 °F 100% 30.09 in 0.8 mi ESE 3.5 mph - N/A   Mist
6:35 AM 50.0 °F 50.0 °F 100% 30.09 in 0.2 mi SE 3.5 mph - 0.01 in Fog Fog
6:56 AM 51.1 °F 50.0 °F 96% 30.10 in 0.5 mi SE 3.5 mph - 0.01 in Fog Fog
7:10 AM 50.0 °F 50.0 °F 100% 30.10 in 0.2 mi SE 3.5 mph - N/A Fog Fog
7:26 AM 50.0 °F 50.0 °F 100% 30.10 in 0.5 mi Calm Calm - N/A Fog Fog
7:36 AM 50.0 °F 48.2 °F 94% 30.10 in 0.2 mi Calm Calm - N/A Fog Fog
7:56 AM 50.0 °F 48.9 °F 96% 30.10 in 0.2 mi Calm Calm - N/A Fog Fog
8:20 AM 50.0 °F 48.2 °F 94% 30.10 in 0.5 mi Calm Calm - N/A Fog Fog
8:36 AM 51.8 °F 51.8 °F 100% 30.10 in 2.0 mi Calm Calm - N/A   Mostly Cloudy
8:43 AM 51.8 °F 51.8 °F 100% 30.10 in 7.0 mi Calm Calm - N/A   Scattered Clouds
8:56 AM 54.0 °F 53.1 °F 97% 30.10 in 10.0 mi Calm Calm - N/A   Partly Cloudy
9:56 AM 60.1 °F 55.9 °F 86% 30.10 in 10.0 mi South 3.5 mph - N/A   Clear
10:56 AM 66.9 °F 57.0 °F 70% 30.09 in 10.0 mi South 8.1 mph - N/A   Clear
11:56 AM 72.0 °F 55.0 °F 55% 30.08 in 10.0 mi South 10.4 mph - N/A   Clear
12:56 PM 73.9 °F 54.0 °F 50% 30.07 in 10.0 mi SSE 6.9 mph - N/A   Clear
1:56 PM 75.9 °F 53.1 °F 45% 30.05 in 10.0 mi SSE 11.5 mph - N/A   Clear
2:56 PM 77.0 °F 48.9 °F 37% 30.05 in 10.0 mi SSE 6.9 mph - N/A   Clear
3:56 PM 75.9 °F 52.0 °F 43% 30.04 in 10.0 mi SSE 9.2 mph - N/A   Scattered Clouds
4:56 PM 75.9 °F 50.0 °F 40% 30.03 in 10.0 mi SSE 11.5 mph - N/A   Clear
5:56 PM 75.0 °F 50.0 °F 41% 30.03 in 10.0 mi South 11.5 mph - N/A   Clear
6:56 PM 68.0 °F 51.1 °F 55% 30.05 in 10.0 mi SSE 5.8 mph - N/A   Clear
7:56 PM 66.0 °F 51.1 °F 59% 30.07 in 10.0 mi SSE 4.6 mph - N/A   Clear
8:56 PM 64.0 °F 52.0 °F 65% 30.07 in 10.0 mi SE 8.1 mph - N/A   Clear
9:56 PM 60.1 °F 53.1 °F 78% 30.08 in 10.0 mi SSE 6.9 mph - N/A   Clear
10:56 PM 61.0 °F 55.0 °F 81% 30.09 in 10.0 mi SSE 3.5 mph - N/A   Scattered Clouds
11:56 PM 61.0 °F 54.0 °F 78% 30.10 in 10.0 mi Calm Calm - N/A   Overcast